Time,TemperatureF,DewpointF,PressureIn,WindDirection,WindDirectionDegrees,WindSpeedMPH,WindSpeedGustMPH,Humidity,HourlyPrecipIn,Conditions,Clouds,dailyrainin,SoftwareType,DateUTC
2013-10-06 00:03:00,38.8,-1.1,30.31,South,180,2.0,2.0,18,0.00,,,0.00,meteohub,2013-10-06 07:03:00,
2013-10-06 00:08:00,38.3,0.7,30.30,South,180,2.0,2.0,20,0.00,,,0.00,meteohub,2013-10-06 07:08:00,
2013-10-06 00:13:00,37.4,0.0,30.31,South,180,1.0,2.0,20,0.00,,,0.00,meteohub,2013-10-06 07:13:00,
2013-10-06 00:18:00,37.0,-0.4,30.31,South,180,1.0,2.0,20,0.00,,,0.00,meteohub,2013-10-06 07:18:00,
2013-10-06 00:23:00,36.7,-0.6,30.30,South,180,0.0,2.0,20,0.00,,,0.00,meteohub,2013-10-06 07:23:00,
2013-10-06 00:28:00,36.3,0.1,30.30,South,180,2.0,2.0,21,0.00,,,0.00,meteohub,2013-10-06 07:28:00,
2013-10-06 00:33:00,35.6,0.5,30.30,South,180,2.0,2.0,22,0.00,,,0.00,meteohub,2013-10-06 07:33:00,
2013-10-06 00:38:00,35.4,0.3,30.30,South,180,1.0,2.0,22,0.00,,,0.00,meteohub,2013-10-06 07:38:00,
2013-10-06 00:43:00,35.6,0.5,30.30,South,180,2.0,3.0,22,0.00,,,0.00,meteohub,2013-10-06 07:43:00,
2013-10-06 00:48:00,36.0,-0.2,30.31,South,180,2.0,3.0,21,0.00,,,0.00,meteohub,2013-10-06 07:48:00,
2013-10-06 00:53:00,36.1,0.0,30.30,South,180,2.0,3.0,21,0.00,,,0.00,meteohub,2013-10-06 07:53:00,
2013-10-06 00:58:00,36.7,0.3,30.31,South,180,3.0,3.0,21,0.00,,,0.00,meteohub,2013-10-06 07:58:00,
2013-10-06 01:03:00,37.4,1.0,30.31,South,180,3.0,3.0,21,0.00,,,0.00,meteohub,2013-10-06 08:03:00,
2013-10-06 01:08:00,38.1,0.5,30.30,South,180,2.0,3.0,20,0.00,,,0.00,meteohub,2013-10-06 08:08:00,
2013-10-06 01:13:00,38.5,0.9,30.31,South,180,2.0,3.0,20,0.00,,,0.00,meteohub,2013-10-06 08:13:00,
2013-10-06 01:18:00,38.1,0.5,30.30,South,180,2.0,3.0,20,0.00,,,0.00,meteohub,2013-10-06 08:18:00,
2013-10-06 01:23:00,37.8,-0.8,30.30,South,180,2.0,3.0,19,0.00,,,0.00,meteohub,2013-10-06 08:23:00,
2013-10-06 01:28:00,37.4,-1.1,30.30,South,180,1.0,3.0,19,0.00,,,0.00,meteohub,2013-10-06 08:28:00,
2013-10-06 01:33:00,37.0,-0.4,30.30,South,180,2.0,2.0,20,0.00,,,0.00,meteohub,2013-10-06 08:33:00,
2013-10-06 01:39:00,36.7,-1.7,30.30,South,180,1.0,2.0,19,0.00,,,0.00,meteohub,2013-10-06 08:39:00,
2013-10-06 01:44:00,36.7,-1.7,30.30,South,180,2.0,2.0,19,0.00,,,0.00,meteohub,2013-10-06 08:44:00,
2013-10-06 01:49:00,36.3,-2.0,30.30,South,180,0.0,2.0,19,0.00,,,0.00,meteohub,2013-10-06 08:49:00,
2013-10-06 01:54:00,36.0,-2.4,30.30,South,180,0.0,2.0,19,0.00,,,0.00,meteohub,2013-10-06 08:54:00,
2013-10-06 01:59:00,35.6,-2.6,30.30,South,180,2.0,2.0,19,0.00,,,0.00,meteohub,2013-10-06 08:59:00,
2013-10-06 02:04:00,35.2,-2.9,30.30,South,180,1.0,1.0,19,0.00,,,0.00,meteohub,2013-10-06 09:04:00,
2013-10-06 02:09:00,34.9,-2.2,30.29,South,180,1.0,2.0,20,0.00,,,0.00,meteohub,2013-10-06 09:09:00,
2013-10-06 02:11:00,34.7,-3.5,30.30,South,180,2.0,2.0,19,0.00,,,0.00,meteohub,2013-10-06 09:11:00,
2013-10-06 02:16:00,34.2,-2.7,30.30,South,180,0.0,2.0,20,0.00,,,0.00,meteohub,2013-10-06 09:16:00,
2013-10-06 02:21:00,33.6,-3.3,30.29,South,180,1.0,2.0,20,0.00,,,0.00,meteohub,2013-10-06 09:21:00,
2013-10-06 02:26:00,33.1,-2.6,30.29,South,180,2.0,2.0,21,0.00,,,0.00,meteohub,2013-10-06 09:26:00,
2013-10-06 02:31:00,32.2,-2.4,30.29,South,180,2.0,3.0,22,0.00,,,0.00,meteohub,2013-10-06 09:31:00,
2013-10-06 02:36:00,31.8,-3.6,30.28,South,180,1.0,3.0,21,0.00,,,0.00,meteohub,2013-10-06 09:36:00,
2013-10-06 02:41:00,31.5,-4.0,30.29,South,180,3.0,3.0,21,0.00,,,0.00,meteohub,2013-10-06 09:41:00,
2013-10-06 02:46:00,31.6,-3.8,30.28,East,90,2.0,4.0,21,0.00,,,0.00,meteohub,2013-10-06 09:46:00,
2013-10-06 02:52:00,31.5,-3.1,30.28,East,90,2.0,4.0,22,0.00,,,0.00,meteohub,2013-10-06 09:52:00,
2013-10-06 02:57:00,31.1,-3.3,30.28,East,90,2.0,4.0,22,0.00,,,0.00,meteohub,2013-10-06 09:57:00,
2013-10-06 03:02:00,31.1,-3.3,30.28,East,90,2.0,4.0,22,0.00,,,0.00,meteohub,2013-10-06 10:02:00,
2013-10-06 03:07:00,31.5,-3.1,30.28,East,90,0.0,3.0,22,0.00,,,0.00,meteohub,2013-10-06 10:07:00,
2013-10-06 03:12:00,31.5,-4.0,30.28,East,90,1.0,3.0,21,0.00,,,0.00,meteohub,2013-10-06 10:12:00,
2013-10-06 03:17:00,31.5,-4.0,30.28,East,90,0.0,2.0,21,0.00,,,0.00,meteohub,2013-10-06 10:17:00,
2013-10-06 03:22:00,31.5,-5.1,30.28,East,90,1.0,2.0,20,0.00,,,0.00,meteohub,2013-10-06 10:22:00,
2013-10-06 03:27:00,31.5,-4.0,30.28,East,90,3.0,3.0,21,0.00,,,0.00,meteohub,2013-10-06 10:27:00,
2013-10-06 03:32:00,31.6,-4.9,30.28,East,90,2.0,3.0,20,0.00,,,0.00,meteohub,2013-10-06 10:32:00,
2013-10-06 03:37:00,31.8,-4.7,30.27,East,90,2.0,3.0,20,0.00,,,0.00,meteohub,2013-10-06 10:37:00,
2013-10-06 03:42:00,32.0,-4.5,30.28,East,90,1.0,3.0,20,0.00,,,0.00,meteohub,2013-10-06 10:42:00,
2013-10-06 03:47:00,32.2,-4.4,30.28,East,90,1.0,2.0,20,0.00,,,0.00,meteohub,2013-10-06 10:47:00,
2013-10-06 03:52:00,32.0,-4.5,30.27,East,90,2.0,2.0,20,0.00,,,0.00,meteohub,2013-10-06 10:52:00,
2013-10-06 03:57:00,31.8,-5.8,30.28,East,90,2.0,2.0,19,0.00,,,0.00,meteohub,2013-10-06 10:57:00,
2013-10-06 04:02:00,32.0,-5.6,30.28,East,90,2.0,2.0,19,0.00,,,0.00,meteohub,2013-10-06 11:02:00,
2013-10-06 04:07:00,32.0,-5.6,30.28,East,90,2.0,2.0,19,0.00,,,0.00,meteohub,2013-10-06 11:07:00,
2013-10-06 04:12:00,32.0,-5.6,30.28,East,90,1.0,2.0,19,0.00,,,0.00,meteohub,2013-10-06 11:12:00,
2013-10-06 04:17:00,31.8,-4.7,30.27,East,90,3.0,3.0,20,0.00,,,0.00,meteohub,2013-10-06 11:17:00,
2013-10-06 04:22:00,31.5,-5.1,30.27,East,90,2.0,3.0,20,0.00,,,0.00,meteohub,2013-10-06 11:22:00,
2013-10-06 04:27:00,31.5,-5.1,30.27,East,90,1.0,3.0,20,0.00,,,0.00,meteohub,2013-10-06 11:27:00,
2013-10-06 04:32:00,31.3,-5.1,30.27,East,90,1.0,3.0,20,0.00,,,0.00,meteohub,2013-10-06 11:32:00,
2013-10-06 04:37:00,30.9,-4.5,30.27,East,90,2.0,2.0,21,0.00,,,0.00,meteohub,2013-10-06 11:37:00,
2013-10-06 04:42:00,30.7,-4.5,30.27,East,90,2.0,2.0,21,0.00,,,0.00,meteohub,2013-10-06 11:42:00,
2013-10-06 04:47:00,30.6,-5.8,30.27,East,90,2.0,2.0,20,0.00,,,0.00,meteohub,2013-10-06 11:47:00,
2013-10-06 04:52:00,30.9,-5.4,30.27,East,90,2.0,4.0,20,0.00,,,0.00,meteohub,2013-10-06 11:52:00,
2013-10-06 04:57:00,31.1,-5.3,30.27,East,90,2.0,4.0,20,0.00,,,0.00,meteohub,2013-10-06 11:57:00,
2013-10-06 05:02:00,31.1,-5.3,30.27,East,90,2.0,4.0,20,0.00,,,0.00,meteohub,2013-10-06 12:02:00,
2013-10-06 05:06:00,31.3,-5.1,30.27,East,90,2.0,3.0,20,0.00,,,0.00,meteohub,2013-10-06 12:06:00,
2013-10-06 05:12:00,31.1,-5.3,30.27,East,90,1.0,3.0,20,0.00,,,0.00,meteohub,2013-10-06 12:12:00,
2013-10-06 05:17:00,31.1,-5.3,30.27,East,90,2.0,3.0,20,0.00,,,0.00,meteohub,2013-10-06 12:17:00,
2013-10-06 05:22:00,31.1,-5.3,30.27,East,90,2.0,3.0,20,0.00,,,0.00,meteohub,2013-10-06 12:22:00,
2013-10-06 05:27:00,31.5,-7.2,30.27,East,90,1.0,2.0,18,0.00,,,0.00,meteohub,2013-10-06 12:27:00,
2013-10-06 05:32:00,31.6,-7.1,30.27,East,90,1.0,2.0,18,0.00,,,0.00,meteohub,2013-10-06 12:32:00,
2013-10-06 05:37:00,31.3,-5.1,30.27,East,90,2.0,2.0,20,0.00,,,0.00,meteohub,2013-10-06 12:37:00,
2013-10-06 05:42:00,30.6,-5.8,30.27,East,90,1.0,3.0,20,0.00,,,0.00,meteohub,2013-10-06 12:42:00,
2013-10-06 05:47:00,30.6,-5.8,30.27,East,90,1.0,3.0,20,0.00,,,0.00,meteohub,2013-10-06 12:47:00,
2013-10-06 05:52:00,30.4,-4.9,30.27,East,90,2.0,3.0,21,0.00,,,0.00,meteohub,2013-10-06 12:52:00,
2013-10-06 05:57:00,30.4,-6.0,30.27,East,90,2.0,2.0,20,0.00,,,0.00,meteohub,2013-10-06 12:57:00,
2013-10-06 06:02:00,30.6,-5.8,30.27,East,90,1.0,2.0,20,0.00,,,0.00,meteohub,2013-10-06 13:02:00,
2013-10-06 06:07:00,30.7,-4.5,30.27,East,90,2.0,2.0,21,0.00,,,0.00,meteohub,2013-10-06 13:07:00,
2013-10-06 06:12:00,30.2,-5.1,30.27,East,90,2.0,2.0,21,0.00,,,0.00,meteohub,2013-10-06 13:12:00,
2013-10-06 06:17:00,30.0,-5.3,30.27,East,90,2.0,2.0,21,0.00,,,0.00,meteohub,2013-10-06 13:17:00,
2013-10-06 06:22:00,30.2,-6.0,30.27,East,90,1.0,2.0,20,0.00,,,0.00,meteohub,2013-10-06 13:22:00,
2013-10-06 06:27:00,30.4,-4.9,30.27,East,90,1.0,2.0,21,0.00,,,0.00,meteohub,2013-10-06 13:27:00,
2013-10-06 06:32:00,30.4,-4.9,30.28,East,90,2.0,2.0,21,0.00,,,0.00,meteohub,2013-10-06 13:32:00,
2013-10-06 06:37:00,30.2,-5.1,30.28,East,90,2.0,3.0,21,0.00,,,0.00,meteohub,2013-10-06 13:37:00,
2013-10-06 06:42:00,30.0,-5.3,30.27,East,90,1.0,3.0,21,0.00,,,0.00,meteohub,2013-10-06 13:42:00,
2013-10-06 06:47:00,30.0,-5.3,30.28,East,90,2.0,3.0,21,0.00,,,0.00,meteohub,2013-10-06 13:47:00,
2013-10-06 06:52:00,29.8,-5.4,30.28,East,90,1.0,3.0,21,0.00,,,0.00,meteohub,2013-10-06 13:52:00,
2013-10-06 06:57:00,29.8,-5.4,30.28,East,90,1.0,2.0,21,0.00,,,0.00,meteohub,2013-10-06 13:57:00,
2013-10-06 07:02:00,30.2,-5.1,30.29,East,90,1.0,2.0,21,0.00,,,0.00,meteohub,2013-10-06 14:02:00,
2013-10-06 07:07:00,30.6,-4.7,30.28,East,90,1.0,2.0,21,0.00,,,0.00,meteohub,2013-10-06 14:07:00,
2013-10-06 07:11:00,30.9,-4.5,30.28,East,90,0.0,1.0,21,0.00,,,0.00,meteohub,2013-10-06 14:11:00,
2013-10-06 07:16:00,30.7,-4.5,30.28,East,90,3.0,3.0,21,0.00,,,0.00,meteohub,2013-10-06 14:16:00,
2013-10-06 07:22:00,31.1,-4.4,30.28,East,90,2.0,3.0,21,0.00,,,0.00,meteohub,2013-10-06 14:22:00,
2013-10-06 07:27:00,32.2,-4.4,30.28,East,90,2.0,3.0,20,0.00,,,0.00,meteohub,2013-10-06 14:27:00,
2013-10-06 07:32:00,33.4,-3.3,30.28,East,90,2.0,4.0,20,0.00,,,0.00,meteohub,2013-10-06 14:32:00,
2013-10-06 07:37:00,34.3,-3.6,30.28,East,90,3.0,4.0,19,0.00,,,0.00,meteohub,2013-10-06 14:37:00,
2013-10-06 07:42:00,35.4,-1.7,30.28,East,90,2.0,4.0,20,0.00,,,0.00,meteohub,2013-10-06 14:42:00,
2013-10-06 07:47:00,36.5,-0.8,30.28,South,180,2.0,4.0,20,0.00,,,0.00,meteohub,2013-10-06 14:47:00,
2013-10-06 07:52:00,37.9,-0.8,30.28,East,90,3.0,4.0,19,0.00,,,0.00,meteohub,2013-10-06 14:52:00,
2013-10-06 07:57:00,39.0,0.1,30.29,East,90,3.0,3.0,19,0.00,,,0.00,meteohub,2013-10-06 14:57:00,
2013-10-06 08:02:00,40.3,1.2,30.28,East,90,1.0,3.0,19,0.00,,,0.00,meteohub,2013-10-06 15:02:00,
2013-10-06 08:07:00,41.5,2.3,30.29,East,90,2.0,4.0,19,0.00,,,0.00,meteohub,2013-10-06 15:07:00,
2013-10-06 08:12:00,42.6,4.3,30.29,East,90,1.0,4.0,20,0.00,,,0.00,meteohub,2013-10-06 15:12:00,
2013-10-06 08:17:00,43.7,5.2,30.29,East,90,2.0,3.0,20,0.00,,,0.00,meteohub,2013-10-06 15:17:00,
2013-10-06 08:22:00,44.6,7.0,30.29,East,90,2.0,2.0,21,0.00,,,0.00,meteohub,2013-10-06 15:22:00,
2013-10-06 08:27:00,45.7,7.9,30.29,East,90,2.0,2.0,21,0.00,,,0.00,meteohub,2013-10-06 15:27:00,
2013-10-06 08:32:00,46.9,7.9,30.29,East,90,2.0,2.0,20,0.00,,,0.00,meteohub,2013-10-06 15:32:00,
2013-10-06 08:37:00,48.2,10.0,30.29,East,90,0.0,3.0,21,0.00,,,0.00,meteohub,2013-10-06 15:37:00,
2013-10-06 08:42:00,49.3,12.0,30.29,East,90,2.0,3.0,22,0.00,,,0.00,meteohub,2013-10-06 15:42:00,
2013-10-06 08:47:00,50.7,11.1,30.29,East,90,2.0,3.0,20,0.00,,,0.00,meteohub,2013-10-06 15:47:00,
2013-10-06 08:52:00,52.3,12.4,30.30,South,180,2.0,3.0,20,0.00,,,0.00,meteohub,2013-10-06 15:52:00,
2013-10-06 08:57:00,54.0,8.8,30.30,East,90,7.0,7.0,16,0.00,,,0.00,meteohub,2013-10-06 15:57:00,
2013-10-06 09:02:00,55.2,11.1,30.29,East,90,4.0,7.0,17,0.00,,,0.00,meteohub,2013-10-06 16:02:00,
2013-10-06 09:07:00,56.3,10.6,30.30,East,90,5.0,8.0,16,0.00,,,0.00,meteohub,2013-10-06 16:07:00,
2013-10-06 09:12:00,56.8,12.4,30.30,East,90,4.0,8.0,17,0.00,,,0.00,meteohub,2013-10-06 16:12:00,
2013-10-06 09:17:00,57.7,13.3,30.30,East,90,5.0,6.0,17,0.00,,,0.00,meteohub,2013-10-06 16:17:00,
2013-10-06 09:22:00,58.3,12.2,30.30,East,90,4.0,6.0,16,0.00,,,0.00,meteohub,2013-10-06 16:22:00,
2013-10-06 09:27:00,58.8,11.3,30.30,East,90,7.0,7.0,15,0.00,,,0.00,meteohub,2013-10-06 16:27:00,
2013-10-06 09:32:00,59.4,11.7,30.30,East,90,7.0,7.0,15,0.00,,,0.00,meteohub,2013-10-06 16:32:00,
2013-10-06 09:37:00,59.9,12.2,30.30,SE,135,8.0,8.0,15,0.00,,,0.00,meteohub,2013-10-06 16:37:00,
2013-10-06 09:42:00,60.4,12.6,30.30,East,90,6.0,8.0,15,0.00,,,0.00,meteohub,2013-10-06 16:42:00,
2013-10-06 09:47:00,60.3,13.8,30.30,East,90,8.0,8.0,16,0.00,,,0.00,meteohub,2013-10-06 16:47:00,
2013-10-06 09:52:00,60.6,14.2,30.30,East,90,4.0,8.0,16,0.00,,,0.00,meteohub,2013-10-06 16:52:00,
2013-10-06 09:57:00,61.0,14.5,30.30,East,90,5.0,9.0,16,0.00,,,0.00,meteohub,2013-10-06 16:57:00,
2013-10-06 10:02:00,61.7,16.3,30.30,East,90,4.0,9.0,17,0.00,,,0.00,meteohub,2013-10-06 17:02:00,
2013-10-06 10:07:00,61.9,13.6,30.30,East,90,6.0,9.0,15,0.00,,,0.00,meteohub,2013-10-06 17:07:00,
2013-10-06 10:12:00,62.2,14.0,30.30,East,90,5.0,8.0,15,0.00,,,0.00,meteohub,2013-10-06 17:12:00,
2013-10-06 10:17:00,62.6,14.4,30.30,East,90,9.0,9.0,15,0.00,,,0.00,meteohub,2013-10-06 17:17:00,
2013-10-06 10:22:00,62.8,14.4,30.30,East,90,6.0,9.0,15,0.00,,,0.00,meteohub,2013-10-06 17:22:00,
2013-10-06 10:27:00,63.3,13.3,30.30,NE,45,8.0,10.0,14,0.00,,,0.00,meteohub,2013-10-06 17:27:00,
2013-10-06 10:32:00,64.0,13.8,30.30,East,90,4.0,10.0,14,0.00,,,0.00,meteohub,2013-10-06 17:32:00,
2013-10-06 10:37:00,64.0,13.8,30.29,NE,45,4.0,10.0,14,0.00,,,0.00,meteohub,2013-10-06 17:37:00,
2013-10-06 10:42:00,64.0,13.8,30.29,North,0,6.0,9.0,14,0.00,,,0.00,meteohub,2013-10-06 17:42:00,
2013-10-06 10:47:00,64.0,13.8,30.29,East,90,4.0,8.0,14,0.00,,,0.00,meteohub,2013-10-06 17:47:00,
2013-10-06 10:52:00,64.6,12.6,30.29,East,90,8.0,8.0,13,0.00,,,0.00,meteohub,2013-10-06 17:52:00,
2013-10-06 10:57:00,64.9,12.9,30.29,East,90,7.0,8.0,13,0.00,,,0.00,meteohub,2013-10-06 17:57:00,
2013-10-06 11:02:00,65.3,13.1,30.29,North,0,6.0,8.0,13,0.00,,,0.00,meteohub,2013-10-06 18:02:00,
2013-10-06 11:07:00,65.7,13.5,30.29,NE,45,6.0,8.0,13,0.00,,,0.00,meteohub,2013-10-06 18:07:00,
2013-10-06 11:12:00,65.8,11.8,30.29,NE,45,8.0,8.0,12,0.00,,,0.00,meteohub,2013-10-06 18:12:00,
2013-10-06 11:17:00,65.8,13.6,30.28,NE,45,5.0,9.0,13,0.00,,,0.00,meteohub,2013-10-06 18:17:00,
2013-10-06 11:22:00,66.6,14.2,30.28,SE,135,4.0,9.0,13,0.00,,,0.00,meteohub,2013-10-06 18:22:00,
2013-10-06 11:27:00,67.3,12.9,30.28,NE,45,7.0,9.0,12,0.00,,,0.00,meteohub,2013-10-06 18:27:00,
2013-10-06 11:32:00,67.5,13.1,30.28,SE,135,6.0,9.0,12,0.00,,,0.00,meteohub,2013-10-06 18:32:00,
2013-10-06 11:37:00,67.8,13.3,30.28,North,0,6.0,9.0,12,0.00,,,0.00,meteohub,2013-10-06 18:37:00,
2013-10-06 11:42:00,67.8,11.3,30.28,East,90,9.0,10.0,11,0.00,,,0.00,meteohub,2013-10-06 18:42:00,
2013-10-06 11:47:00,67.6,15.1,30.27,North,0,3.0,10.0,13,0.00,,,0.00,meteohub,2013-10-06 18:47:00,
2013-10-06 11:52:00,68.0,15.3,30.28,North,0,8.0,11.0,13,0.00,,,0.00,meteohub,2013-10-06 18:52:00,
2013-10-06 11:57:00,68.2,13.6,30.28,East,90,5.0,11.0,12,0.00,,,0.00,meteohub,2013-10-06 18:57:00,
2013-10-06 12:02:00,68.7,14.0,30.27,East,90,6.0,11.0,12,0.00,,,0.00,meteohub,2013-10-06 19:02:00,
2013-10-06 12:07:00,69.1,14.4,30.27,NE,45,10.0,10.0,12,0.00,,,0.00,meteohub,2013-10-06 19:07:00,
2013-10-06 12:12:00,68.7,15.8,30.27,North,0,4.0,11.0,13,0.00,,,0.00,meteohub,2013-10-06 19:12:00,
2013-10-06 12:17:00,68.5,13.8,30.27,East,90,8.0,11.0,12,0.00,,,0.00,meteohub,2013-10-06 19:17:00,
2013-10-06 12:22:00,68.7,14.0,30.27,East,90,10.0,11.0,12,0.00,,,0.00,meteohub,2013-10-06 19:22:00,
2013-10-06 12:27:00,68.9,12.2,30.26,North,0,8.0,10.0,11,0.00,,,0.00,meteohub,2013-10-06 19:27:00,
2013-10-06 12:32:00,69.1,12.4,30.26,NE,45,6.0,10.0,11,0.00,,,0.00,meteohub,2013-10-06 19:32:00,
2013-10-06 12:37:00,69.4,12.6,30.26,NE,45,7.0,10.0,11,0.00,,,0.00,meteohub,2013-10-06 19:37:00,
2013-10-06 12:42:00,69.4,14.5,30.27,NE,45,4.0,9.0,12,0.00,,,0.00,meteohub,2013-10-06 19:42:00,
2013-10-06 12:47:00,69.8,14.9,30.26,East,90,5.0,13.0,12,0.00,,,0.00,meteohub,2013-10-06 19:47:00,
2013-10-06 12:52:00,69.6,14.7,30.26,East,90,5.0,13.0,12,0.00,,,0.00,meteohub,2013-10-06 19:52:00,
2013-10-06 12:57:00,70.2,15.1,30.26,SE,135,8.0,10.0,12,0.00,,,0.00,meteohub,2013-10-06 19:57:00,
2013-10-06 13:02:00,70.9,17.6,30.26,East,90,4.0,9.0,13,0.00,,,0.00,meteohub,2013-10-06 20:02:00,
2013-10-06 13:07:00,71.1,13.8,30.26,NE,45,8.0,12.0,11,0.00,,,0.00,meteohub,2013-10-06 20:07:00,
2013-10-06 13:12:00,71.1,15.8,30.25,East,90,7.0,12.0,12,0.00,,,0.00,meteohub,2013-10-06 20:12:00,
2013-10-06 13:17:00,71.4,16.2,30.25,East,90,7.0,12.0,12,0.00,,,0.00,meteohub,2013-10-06 20:17:00,
2013-10-06 13:22:00,71.1,15.8,30.26,East,90,8.0,11.0,12,0.00,,,0.00,meteohub,2013-10-06 20:22:00,
2013-10-06 13:27:00,70.9,15.8,30.25,East,90,6.0,11.0,12,0.00,,,0.00,meteohub,2013-10-06 20:27:00,
2013-10-06 13:32:00,70.9,15.8,30.25,North,0,8.0,11.0,12,0.00,,,0.00,meteohub,2013-10-06 20:32:00,
2013-10-06 13:37:00,70.5,15.4,30.25,North,0,7.0,9.0,12,0.00,,,0.00,meteohub,2013-10-06 20:37:00,
2013-10-06 13:42:00,70.3,15.3,30.25,North,0,10.0,10.0,12,0.00,,,0.00,meteohub,2013-10-06 20:42:00,
2013-10-06 13:47:00,70.2,15.1,30.25,East,90,9.0,10.0,12,0.00,,,0.00,meteohub,2013-10-06 20:47:00,
2013-10-06 13:52:00,70.0,15.1,30.25,East,90,8.0,10.0,12,0.00,,,0.00,meteohub,2013-10-06 20:52:00,
2013-10-06 13:57:00,69.8,16.7,30.25,NE,45,5.0,11.0,13,0.00,,,0.00,meteohub,2013-10-06 20:57:00,
2013-10-06 14:02:00,70.3,15.3,30.25,NE,45,5.0,11.0,12,0.00,,,0.00,meteohub,2013-10-06 21:02:00,
2013-10-06 14:07:00,69.8,14.9,30.25,East,90,4.0,8.0,12,0.00,,,0.00,meteohub,2013-10-06 21:07:00,
2013-10-06 14:12:00,70.3,17.2,30.25,East,90,3.0,9.0,13,0.00,,,0.00,meteohub,2013-10-06 21:12:00,
2013-10-06 14:17:00,70.5,15.4,30.25,NE,45,6.0,9.0,12,0.00,,,0.00,meteohub,2013-10-06 21:17:00,
2013-10-06 14:22:00,70.5,17.2,30.24,North,0,5.0,9.0,13,0.00,,,0.00,meteohub,2013-10-06 21:22:00,
2013-10-06 14:27:00,69.4,16.5,30.25,East,90,11.0,11.0,13,0.00,,,0.00,meteohub,2013-10-06 21:27:00,
2013-10-06 14:32:00,69.4,14.5,30.25,NE,45,8.0,11.0,12,0.00,,,0.00,meteohub,2013-10-06 21:32:00,
2013-10-06 14:37:00,69.6,16.5,30.25,NE,45,6.0,11.0,13,0.00,,,0.00,meteohub,2013-10-06 21:37:00,
2013-10-06 14:42:00,69.4,16.5,30.25,East,90,9.0,11.0,13,0.00,,,0.00,meteohub,2013-10-06 21:42:00,
2013-10-06 14:47:00,69.1,16.2,30.25,East,90,8.0,10.0,13,0.00,,,0.00,meteohub,2013-10-06 21:47:00,
2013-10-06 14:52:00,68.9,16.0,30.25,NE,45,5.0,9.0,13,0.00,,,0.00,meteohub,2013-10-06 21:52:00,
2013-10-06 14:57:00,68.0,15.3,30.24,NE,45,4.0,9.0,13,0.00,,,0.00,meteohub,2013-10-06 21:57:00,
2013-10-06 15:02:00,67.8,15.1,30.24,NE,45,8.0,8.0,13,0.00,,,0.00,meteohub,2013-10-06 22:02:00,
2013-10-06 15:07:00,68.2,15.4,30.25,East,90,6.0,8.0,13,0.00,,,0.00,meteohub,2013-10-06 22:07:00,
2013-10-06 15:12:00,68.2,15.4,30.24,East,90,5.0,8.0,13,0.00,,,0.00,meteohub,2013-10-06 22:12:00,
2013-10-06 15:17:00,68.2,15.4,30.25,North,0,8.0,9.0,13,0.00,,,0.00,meteohub,2013-10-06 22:17:00,
2013-10-06 15:22:00,67.8,15.1,30.24,East,90,4.0,9.0,13,0.00,,,0.00,meteohub,2013-10-06 22:22:00,
2013-10-06 15:27:00,68.0,15.3,30.24,East,90,4.0,9.0,13,0.00,,,0.00,meteohub,2013-10-06 22:27:00,
2013-10-06 15:33:00,68.2,15.4,30.24,East,90,4.0,8.0,13,0.00,,,0.00,meteohub,2013-10-06 22:33:00,
2013-10-06 15:38:00,68.2,15.4,30.24,SE,135,3.0,6.0,13,0.00,,,0.00,meteohub,2013-10-06 22:38:00,
2013-10-06 15:43:00,68.4,15.6,30.24,SE,135,2.0,5.0,13,0.00,,,0.00,meteohub,2013-10-06 22:43:00,
2013-10-06 15:48:00,68.4,15.6,30.24,South,180,2.0,5.0,13,0.00,,,0.00,meteohub,2013-10-06 22:48:00,
2013-10-06 15:53:00,68.2,13.6,30.24,East,90,3.0,5.0,12,0.00,,,0.00,meteohub,2013-10-06 22:53:00,
2013-10-06 15:58:00,68.0,15.3,30.23,East,90,2.0,5.0,13,0.00,,,0.00,meteohub,2013-10-06 22:58:00,
2013-10-06 16:03:00,67.8,15.1,30.23,SE,135,2.0,4.0,13,0.00,,,0.00,meteohub,2013-10-06 23:03:00,
2013-10-06 16:08:00,67.8,15.1,30.24,SE,135,2.0,4.0,13,0.00,,,0.00,meteohub,2013-10-06 23:08:00,
2013-10-06 16:13:00,67.8,15.1,30.24,SE,135,2.0,4.0,13,0.00,,,0.00,meteohub,2013-10-06 23:13:00,
2013-10-06 16:18:00,67.5,14.9,30.24,South,180,2.0,4.0,13,0.00,,,0.00,meteohub,2013-10-06 23:18:00,
2013-10-06 16:23:00,67.3,14.7,30.24,SE,135,2.0,4.0,13,0.00,,,0.00,meteohub,2013-10-06 23:23:00,
2013-10-06 16:28:00,66.9,14.5,30.24,East,90,2.0,4.0,13,0.00,,,0.00,meteohub,2013-10-06 23:28:00,
2013-10-06 16:33:00,66.6,15.8,30.24,North,0,3.0,5.0,14,0.00,,,0.00,meteohub,2013-10-06 23:33:00,
2013-10-06 16:38:00,66.2,15.6,30.24,South,180,2.0,5.0,14,0.00,,,0.00,meteohub,2013-10-06 23:38:00,
2013-10-06 16:47:00,65.8,15.3,30.24,West,270,2.0,8.0,14,0.00,,,0.00,meteohub,2013-10-06 23:47:00,
2013-10-06 16:52:00,65.3,14.9,30.24,North,0,4.0,8.0,14,0.00,,,0.00,meteohub,2013-10-06 23:52:00,
2013-10-06 16:57:00,64.9,14.5,30.24,North,0,4.0,8.0,14,0.00,,,0.00,meteohub,2013-10-06 23:57:00,
2013-10-06 17:02:00,64.6,15.8,30.25,NE,45,4.0,5.0,15,0.00,,,0.00,meteohub,2013-10-07 00:02:00,
2013-10-06 17:07:00,64.2,15.6,30.24,East,90,4.0,5.0,15,0.00,,,0.00,meteohub,2013-10-07 00:07:00,
2013-10-06 17:12:00,64.0,15.4,30.24,North,0,0.0,4.0,15,0.00,,,0.00,meteohub,2013-10-07 00:12:00,
2013-10-06 17:17:00,63.9,15.3,30.23,North,0,0.0,4.0,15,0.00,,,0.00,meteohub,2013-10-07 00:17:00,
2013-10-06 17:21:00,63.5,16.5,30.24,North,0,1.0,4.0,16,0.00,,,0.00,meteohub,2013-10-07 00:21:00,
2013-10-06 17:27:00,63.1,16.2,30.23,North,0,1.0,2.0,16,0.00,,,0.00,meteohub,2013-10-07 00:27:00,
2013-10-06 17:32:00,62.8,16.0,30.23,North,0,2.0,2.0,16,0.00,,,0.00,meteohub,2013-10-07 00:32:00,
2013-10-06 17:37:00,62.4,17.1,30.24,North,0,2.0,2.0,17,0.00,,,0.00,meteohub,2013-10-07 00:37:00,
2013-10-06 17:42:00,62.1,16.7,30.24,North,0,1.0,2.0,17,0.00,,,0.00,meteohub,2013-10-07 00:42:00,
2013-10-06 17:47:00,60.8,14.4,30.23,North,0,1.0,2.0,16,0.00,,,0.00,meteohub,2013-10-07 00:47:00,
2013-10-06 17:52:00,60.4,14.0,30.24,North,0,2.0,2.0,16,0.00,,,0.00,meteohub,2013-10-07 00:52:00,
2013-10-06 17:57:00,59.4,13.1,30.24,North,0,2.0,2.0,16,0.00,,,0.00,meteohub,2013-10-07 00:57:00,
2013-10-06 18:02:00,58.3,13.6,30.23,North,0,1.0,2.0,17,0.00,,,0.00,meteohub,2013-10-07 01:02:00,
2013-10-06 18:07:00,57.7,14.5,30.23,North,0,0.0,2.0,18,0.00,,,0.00,meteohub,2013-10-07 01:07:00,
2013-10-06 18:12:00,56.8,13.8,30.23,North,0,0.0,2.0,18,0.00,,,0.00,meteohub,2013-10-07 01:12:00,
2013-10-06 18:17:00,56.5,13.5,30.24,North,0,1.0,2.0,18,0.00,,,0.00,meteohub,2013-10-07 01:17:00,
2013-10-06 18:22:00,56.1,13.1,30.24,North,0,1.0,1.0,18,0.00,,,0.00,meteohub,2013-10-07 01:22:00,
2013-10-06 18:27:00,55.6,12.7,30.24,North,0,1.0,2.0,18,0.00,,,0.00,meteohub,2013-10-07 01:27:00,
2013-10-06 18:32:00,54.9,13.3,30.24,North,0,2.0,2.0,19,0.00,,,0.00,meteohub,2013-10-07 01:32:00,
2013-10-06 18:37:00,53.8,11.3,30.23,North,0,2.0,2.0,18,0.00,,,0.00,meteohub,2013-10-07 01:37:00,
2013-10-06 18:42:00,53.4,12.2,30.24,North,0,2.0,2.0,19,0.00,,,0.00,meteohub,2013-10-07 01:42:00,
2013-10-06 18:47:00,53.1,11.8,30.24,North,0,2.0,2.0,19,0.00,,,0.00,meteohub,2013-10-07 01:47:00,
2013-10-06 18:52:00,52.7,11.7,30.24,SSE,158,1.0,2.0,19,0.00,,,0.00,meteohub,2013-10-07 01:52:00,
2013-10-06 18:57:00,51.6,10.8,30.24,South,180,1.0,2.0,19,0.00,,,0.00,meteohub,2013-10-07 01:57:00,
2013-10-06 19:02:00,51.3,10.4,30.24,South,180,0.0,2.0,19,0.00,,,0.00,meteohub,2013-10-07 02:02:00,
2013-10-06 19:07:00,50.7,11.1,30.24,South,180,2.0,2.0,20,0.00,,,0.00,meteohub,2013-10-07 02:07:00,
2013-10-06 19:12:00,50.2,10.6,30.24,East,90,1.0,2.0,20,0.00,,,0.00,meteohub,2013-10-07 02:12:00,
2013-10-06 19:17:00,49.6,10.2,30.24,East,90,1.0,2.0,20,0.00,,,0.00,meteohub,2013-10-07 02:17:00,
2013-10-06 19:22:00,48.9,9.5,30.24,East,90,1.0,2.0,20,0.00,,,0.00,meteohub,2013-10-07 02:22:00,
2013-10-06 19:27:00,48.2,9.0,30.24,East,90,1.0,2.0,20,0.00,,,0.00,meteohub,2013-10-07 02:27:00,
2013-10-06 19:32:00,47.5,9.5,30.24,East,90,1.0,2.0,21,0.00,,,0.00,meteohub,2013-10-07 02:32:00,
2013-10-06 19:37:00,46.9,9.0,30.23,South,180,1.0,2.0,21,0.00,,,0.00,meteohub,2013-10-07 02:37:00,
2013-10-06 19:42:00,46.6,8.8,30.23,South,180,2.0,2.0,21,0.00,,,0.00,meteohub,2013-10-07 02:42:00,
2013-10-06 19:47:00,46.2,8.4,30.23,South,180,1.0,2.0,21,0.00,,,0.00,meteohub,2013-10-07 02:47:00,
2013-10-06 19:52:00,45.5,7.9,30.24,South,180,2.0,2.0,21,0.00,,,0.00,meteohub,2013-10-07 02:52:00,
2013-10-06 19:57:00,45.0,7.3,30.23,South,180,2.0,2.0,21,0.00,,,0.00,meteohub,2013-10-07 02:57:00,
2013-10-06 20:02:00,44.6,7.0,30.23,South,180,4.0,4.0,21,0.00,,,0.00,meteohub,2013-10-07 03:02:00,
2013-10-06 20:07:00,44.2,6.8,30.24,SSE,158,2.0,4.0,21,0.00,,,0.00,meteohub,2013-10-07 03:07:00,
2013-10-06 20:12:00,44.2,6.8,30.23,South,180,2.0,4.0,21,0.00,,,0.00,meteohub,2013-10-07 03:12:00,
2013-10-06 20:17:00,44.1,6.6,30.24,SE,135,2.0,4.0,21,0.00,,,0.00,meteohub,2013-10-07 03:17:00,
2013-10-06 20:22:00,43.5,7.2,30.24,SE,135,2.0,4.0,22,0.00,,,0.00,meteohub,2013-10-07 03:22:00,
2013-10-06 20:27:00,43.0,6.8,30.24,SE,135,2.0,2.0,22,0.00,,,0.00,meteohub,2013-10-07 03:27:00,
2013-10-06 20:32:00,42.4,6.3,30.24,SW,225,1.0,2.0,22,0.00,,,0.00,meteohub,2013-10-07 03:32:00,
2013-10-06 20:37:00,41.7,4.6,30.24,East,90,1.0,2.0,21,0.00,,,0.00,meteohub,2013-10-07 03:37:00,
2013-10-06 20:42:00,41.2,4.1,30.24,East,90,1.0,2.0,21,0.00,,,0.00,meteohub,2013-10-07 03:42:00,
2013-10-06 20:47:00,40.6,4.8,30.24,East,90,1.0,2.0,22,0.00,,,0.00,meteohub,2013-10-07 03:47:00,
2013-10-06 20:52:00,40.5,3.6,30.24,East,90,2.0,2.0,21,0.00,,,0.00,meteohub,2013-10-07 03:52:00,
2013-10-06 20:57:00,40.6,4.8,30.24,East,90,0.0,2.0,22,0.00,,,0.00,meteohub,2013-10-07 03:57:00,
2013-10-06 21:01:00,40.8,4.8,30.24,North,0,1.0,2.0,22,0.00,,,0.00,meteohub,2013-10-07 04:01:00,
2013-10-06 21:02:00,40.8,4.8,30.24,North,0,1.0,2.0,22,0.00,,,0.00,meteohub,2013-10-07 04:02:00,
2013-10-06 21:07:00,40.3,5.4,30.24,North,0,1.0,3.0,23,0.00,,,0.00,meteohub,2013-10-07 04:07:00,
2013-10-06 21:12:00,40.1,4.3,30.24,SSE,158,2.0,3.0,22,0.00,,,0.00,meteohub,2013-10-07 04:12:00,
2013-10-06 21:17:00,39.6,3.9,30.24,SSE,158,0.0,2.0,22,0.00,,,0.00,meteohub,2013-10-07 04:17:00,
2013-10-06 21:22:00,39.0,4.3,30.25,SSE,158,1.0,2.0,23,0.00,,,0.00,meteohub,2013-10-07 04:22:00,
2013-10-06 21:27:00,38.8,3.2,30.24,South,180,1.0,2.0,22,0.00,,,0.00,meteohub,2013-10-07 04:27:00,
2013-10-06 21:32:00,38.8,3.2,30.24,SSE,158,2.0,2.0,22,0.00,,,0.00,meteohub,2013-10-07 04:32:00,
2013-10-06 21:37:00,38.7,3.0,30.24,SSE,158,1.0,2.0,22,0.00,,,0.00,meteohub,2013-10-07 04:37:00,
2013-10-06 21:42:00,38.7,3.0,30.24,SSE,158,2.0,2.0,22,0.00,,,0.00,meteohub,2013-10-07 04:42:00,
2013-10-06 21:47:00,38.8,3.2,30.24,South,180,2.0,2.0,22,0.00,,,0.00,meteohub,2013-10-07 04:47:00,
2013-10-06 21:52:00,39.0,3.4,30.24,South,180,2.0,2.0,22,0.00,,,0.00,meteohub,2013-10-07 04:52:00,
2013-10-06 21:57:00,39.0,3.4,30.24,South,180,0.0,2.0,22,0.00,,,0.00,meteohub,2013-10-07 04:57:00,
2013-10-06 22:02:00,38.8,3.2,30.24,SE,135,2.0,2.0,22,0.00,,,0.00,meteohub,2013-10-07 05:02:00,
2013-10-06 22:07:00,38.5,2.8,30.23,SE,135,1.0,2.0,22,0.00,,,0.00,meteohub,2013-10-07 05:07:00,
2013-10-06 22:12:00,38.1,2.7,30.23,SE,135,0.0,2.0,22,0.00,,,0.00,meteohub,2013-10-07 05:12:00,
2013-10-06 22:17:00,37.8,2.3,30.23,SE,135,0.0,2.0,22,0.00,,,0.00,meteohub,2013-10-07 05:17:00,
2013-10-06 22:22:00,37.4,1.9,30.24,SE,135,1.0,2.0,22,0.00,,,0.00,meteohub,2013-10-07 05:22:00,
2013-10-06 22:27:00,37.4,3.0,30.23,SE,135,0.0,1.0,23,0.00,,,0.00,meteohub,2013-10-07 05:27:00,
2013-10-06 22:32:00,37.0,2.7,30.23,SE,135,1.0,1.0,23,0.00,,,0.00,meteohub,2013-10-07 05:32:00,
2013-10-06 22:38:00,36.9,2.5,30.23,SE,135,1.0,1.0,23,0.00,,,0.00,meteohub,2013-10-07 05:38:00,
2013-10-06 22:43:00,37.0,2.7,30.23,SE,135,1.0,1.0,23,0.00,,,0.00,meteohub,2013-10-07 05:43:00,
2013-10-06 22:48:00,36.9,2.5,30.23,SE,135,0.0,1.0,23,0.00,,,0.00,meteohub,2013-10-07 05:48:00,
2013-10-06 22:53:00,36.5,2.1,30.23,SE,135,1.0,1.0,23,0.00,,,0.00,meteohub,2013-10-07 05:53:00,
2013-10-06 22:58:00,36.0,1.8,30.23,SSE,158,1.0,2.0,23,0.00,,,0.00,meteohub,2013-10-07 05:58:00,
2013-10-06 23:03:00,35.6,0.5,30.23,SE,135,1.0,2.0,22,0.00,,,0.00,meteohub,2013-10-07 06:03:00,
2013-10-06 23:08:00,35.6,0.5,30.23,SSE,158,1.0,2.0,22,0.00,,,0.00,meteohub,2013-10-07 06:08:00,
2013-10-06 23:13:00,35.4,-0.6,30.23,East,90,1.0,2.0,21,0.00,,,0.00,meteohub,2013-10-07 06:13:00,
2013-10-06 23:18:00,35.4,-0.6,30.22,East,90,1.0,2.0,21,0.00,,,0.00,meteohub,2013-10-07 06:18:00,
2013-10-06 23:23:00,35.2,-1.8,30.22,East,90,1.0,2.0,20,0.00,,,0.00,meteohub,2013-10-07 06:23:00,
2013-10-06 23:28:00,35.1,-2.0,30.22,East,90,1.0,2.0,20,0.00,,,0.00,meteohub,2013-10-07 06:28:00,
2013-10-06 23:33:00,35.2,-1.8,30.23,East,90,1.0,2.0,20,0.00,,,0.00,meteohub,2013-10-07 06:33:00,
2013-10-06 23:38:00,35.2,-0.8,30.22,East,90,2.0,2.0,21,0.00,,,0.00,meteohub,2013-10-07 06:38:00,
2013-10-06 23:43:00,34.9,-1.1,30.22,East,90,0.0,2.0,21,0.00,,,0.00,meteohub,2013-10-07 06:43:00,
2013-10-06 23:48:00,34.7,-2.4,30.22,East,90,1.0,2.0,20,0.00,,,0.00,meteohub,2013-10-07 06:48:00,
2013-10-06 23:53:00,34.7,-2.4,30.22,East,90,0.0,2.0,20,0.00,,,0.00,meteohub,2013-10-07 06:53:00,
2013-10-06 23:58:00,34.7,-1.3,30.22,SW,225,2.0,2.0,21,0.00,,,0.00,meteohub,2013-10-07 06:58:00,